Luke Air Force Base, AZ

4:37 PM MST on February 12, 2016 (GMT -0700)
Luke Air Force Base

Weather History for KLUF - September, 2013

Change the Weather History Date:

Wednesday, September 4, 2013

  Actual Average Record
Temperature  
Mean Temperature 98 °F -  
Max Temperature 108 °F 104 °F - (-1)
Min Temperature 88 °F 72 °F - (-1)
Cooling Degree Days 33    
Growing Degree Days 48 (Base 50)    
Moisture  
Dew Point 59 °F    
Average Humidity 31    
Maximum Humidity 46    
Minimum Humidity 13    
Precipitation  
Precipitation 0.00 in - - ()
Sea Level Pressure  
Sea Level Pressure 29.82 in    
Wind  
Wind Speed 7 mph (ESE)    
Max Wind Speed 13 mph    
Max Gust Speed 21 mph    
Visibility 10 miles    
Events      
Averages and records for this station are not official NWS values.
T = Trace of Precipitation, MM = Missing Value Source: NWS Daily Summary

Daily Weather History Graph

Daily Weather History Graph

Search for Another Location

Airport or City:

Trip Planner

Search our weather history database for the weather conditions in past years. The results will help you decide how hot, cold, wet, or windy it might be!

Date:

Astronomy

Sep. 04, 2013 Rise Set
Actual Time 6:05 AM MST 6:50 PM MST
Civil Twilight 5:40 AM MST 7:15 PM MST
Nautical Twilight 5:10 AM MST 7:45 PM MST
Astronomical Twilight 4:40 AM MST 8:15 PM MST
Moon 5:21 AM MST (9/4) 6:14 PM MST (9/4)
Length of Visible Light 13h 35m
Length of Day
12h 44m
Waning Crescent, 1% of the Moon is Illuminated
Sep 4
Waning Crescent
Sep 5
New
Sep 12
First Quarter
Sep 19
Full
Sep 26
Last Quarter

Hourly Weather History & Observations

Time (MST) Temp. Heat Index Dew Point Humidity Pressure Visibility Wind Dir Wind Speed Gust Speed Precip Events Conditions
12:58 AM 93.6 °F 93.8 °F 61.0 °F 34% 29.80 in 10.0 mi SE 11.5 mph - N/A   Mostly Cloudy
1:58 AM 92.5 °F 93.0 °F 61.7 °F 36% 29.85 in 10.0 mi SE 6.9 mph - N/A   Mostly Cloudy
2:58 AM 90.7 °F 91.7 °F 63.1 °F 40% 29.86 in 10.0 mi SE 8.1 mph - N/A   Scattered Clouds
3:58 AM 89.1 °F 90.6 °F 64.2 °F 44% 29.85 in 10.0 mi ESE 3.5 mph - N/A   Scattered Clouds
4:58 AM 88.3 °F 89.9 °F 64.8 °F 45% 29.86 in 10.0 mi NNE 2.3 mph - N/A   Overcast
5:58 AM 88.0 °F 89.6 °F 64.6 °F 46% 29.88 in 10.0 mi South 2.3 mph - N/A   Overcast
6:58 AM 88.0 °F 89.3 °F 64.0 °F 45% 29.90 in 10.0 mi East 2.3 mph - N/A   Partly Cloudy
7:58 AM 89.6 °F 90.8 °F 63.5 °F 42% 29.91 in 10.0 mi ESE 5.8 mph - N/A   Clear
8:58 AM 92.3 °F 93.8 °F 63.9 °F 39% 29.92 in 10.0 mi ESE 3.5 mph - N/A   Clear
9:58 AM 95.2 °F 96.3 °F 62.4 °F 34% 29.92 in 10.0 mi SE 5.8 mph - N/A   Clear
10:58 AM 97.7 °F 99.0 °F 61.9 °F 31% 29.91 in 10.0 mi SE 5.8 mph - N/A   Clear
11:58 AM 100.6 °F 101.6 °F 60.4 °F 27% 29.83 in 10.0 mi Variable 3.5 mph - N/A   Scattered Clouds
12:58 PM 102.7 °F 102.7 °F 58.6 °F 23% 29.81 in 10.0 mi Variable 5.8 mph - N/A   Partly Cloudy
1:58 PM 105.4 °F 105.0 °F 56.8 °F 20% 29.78 in 10.0 mi Variable 5.8 mph - N/A   Partly Cloudy
2:58 PM 108.0 °F - 48.7 °F 14% 29.75 in 10.0 mi ESE 5.8 mph - N/A   Partly Cloudy
3:10 PM 107.6 °F - 50.0 °F 15% 29.79 in 10.0 mi East 11.5 mph 20.7 mph N/A   Clear
3:58 PM 108.3 °F - 48.2 °F 13% 29.73 in 10.0 mi South 9.2 mph - N/A   Partly Cloudy
4:58 PM 107.8 °F - 47.8 °F 13% 29.72 in 10.0 mi SSE 8.1 mph - N/A   Clear
5:58 PM 106.5 °F - 48.7 °F 14% 29.72 in 10.0 mi ENE 1.2 mph - N/A   Partly Cloudy
6:58 PM 103.8 °F - 52.0 °F 18% 29.72 in 10.0 mi West 4.6 mph - N/A   Clear
7:58 PM 98.2 °F 99.9 °F 62.4 °F 31% 29.75 in 10.0 mi WNW 12.7 mph - N/A   Clear
8:58 PM 95.7 °F 96.7 °F 62.1 °F 33% 29.76 in 10.0 mi NW 9.2 mph - N/A   Clear
9:58 PM 93.2 °F 93.7 °F 61.7 °F 35% 29.78 in 10.0 mi NNW 10.4 mph - N/A   Clear
10:58 PM 91.9 °F 92.2 °F 61.7 °F 36% 29.80 in 10.0 mi North 6.9 mph - N/A   Clear
11:58 PM 90.9 °F 90.9 °F 61.0 °F 37% 29.79 in 10.0 mi North 4.6 mph - N/A   Clear